Flag for United Kingdom Weather past 2 weeks in Haywards Heath, England, United Kingdom

Now
63 °F

Passing clouds.


Feels Like: 63 °F
Forecast: 51 / 62 °F
Wind: 9 mph from Southwest

Location: London / Gatwick Airport

Current Time: May 27, 2015 at 1:32:38 PM

Latest Report: May 27, 2015 at 12:50 PM


Visibility: N/A

Pressure: 30.21 "Hg

Humidity: 56%

Dew point: 46 °F

Location of Haywards HeathLocation

Historic Weather in Haywards Heath — Graph

°F

Haywards Heath temperature yesterday

Maximum temperature yesterday: 66 °F (at 2:50 PM)
Minimum temperature yesterday: 45 °F (at 4:50 AM)
Average temperature yesterday: 56 °F

Past Weeks' High & Low Weather Summary

 TemperatureHumidityPressure
High68 °F (May 24, 1:50 PM)100% (May 13, 2:20 AM)30.36 "Hg (May 13, 2:20 AM)
Low36 °F (May 13, 3:50 AM)35% (May 13, 3:50 PM)29.62 "Hg (May 18, 1:50 PM)
Average53 °F75%30.10 "Hg
* Reported May 12 12:20 PM — May 27 12:20 PM, Haywards Heath, Weather by CustomWeather, © 2015

Note: Actual official high and low records may vary slightly from our data, if they occured in-between our weather recording intervals... More about our weather records

Advertising

Haywards Heath weather history for previous 24 hours

 ConditionsComfort  
Time TempWeatherWind HumidityBarometerVisibility
12:20 PM
Wed, May 27
63 °FPassing clouds.9 mph52%30.24 "HgN/A
11:50 AM61 °FPassing clouds.10 mph55%30.24 "HgN/A
11:20 AM59 °FPassing clouds.7 mph59%30.27 "HgN/A
10:50 AM57 °FPassing clouds.6 mph59%30.27 "HgN/A
10:20 AM57 °FPassing clouds.7 mph59%30.27 "HgN/A
9:50 AM55 °FPassing clouds.6 mph59%30.30 "HgN/A
9:20 AM54 °FPassing clouds.6 mph63%30.30 "HgN/A
8:50 AM54 °FPassing clouds.8 mph67%30.30 "HgN/A
8:20 AM52 °FPassing clouds.8 mph72%30.30 "HgN/A
7:50 AM50 °FSunny.9 mph76%30.30 "Hg10 mi
7:20 AM50 °FPassing clouds.9 mph71%30.30 "HgN/A
6:50 AM48 °FSunny.9 mph76%30.30 "Hg10 mi
6:20 AM46 °FSunny.9 mph82%30.30 "Hg10 mi
5:50 AM43 °FClear.6 mph87%30.30 "Hg10 mi
5:20 AM41 °FPassing clouds.5 mph93%30.30 "HgN/A
4:50 AM43 °FClear.3 mph87%30.30 "Hg10 mi
4:20 AM45 °FClear.8 mph87%30.30 "Hg10 mi
3:50 AM45 °FClear.7 mph87%30.30 "Hg10 mi
3:20 AM46 °FPassing clouds.8 mph82%30.30 "HgN/A
2:50 AM46 °FPassing clouds.6 mph82%30.33 "HgN/A
2:20 AM45 °FPassing clouds.3 mph87%30.30 "HgN/A
1:50 AM48 °FClear.7 mph82%30.30 "Hg10 mi
1:20 AM48 °FClear.6 mph82%30.30 "Hg10 mi
12:50 AM48 °FClear.5 mph82%30.30 "Hg10 mi
12:20 AM48 °FClear.3 mph82%30.30 "Hg10 mi
11:50 PM
Tue, May 26
46 °FClear.3 mph87%30.30 "Hg10 mi
11:20 PM50 °FPassing clouds.5 mph82%30.30 "HgN/A
10:20 PM54 °FClear.5 mph72%30.30 "Hg10 mi
9:50 PM55 °FSunny.6 mph67%30.30 "Hg10 mi
9:20 PM55 °FSunny.7 mph67%30.27 "Hg10 mi
8:50 PM57 °FSunny.9 mph67%30.27 "Hg10 mi
8:20 PM59 °FSunny.12 mph63%30.27 "Hg10 mi
7:50 PM61 °FSunny.10 mph59%30.27 "Hg10 mi
7:20 PM63 °FSunny.13 mph56%30.24 "Hg10 mi
6:50 PM64 °FSunny.14 mph49%30.24 "Hg10 mi
6:20 PM64 °FSunny.13 mph49%30.24 "Hg10 mi
5:50 PM64 °FPassing clouds.13 mph52%30.24 "HgN/A
5:20 PM66 °FPartly sunny.13 mph49%30.24 "HgN/A
4:50 PM64 °FPassing clouds.12 mph52%30.24 "HgN/A
4:20 PM63 °FScattered clouds.13 mph52%30.21 "HgN/A
3:50 PM63 °FPartly sunny.13 mph52%30.21 "HgN/A
3:20 PM64 °FScattered clouds.10 mph49%30.21 "HgN/A
2:50 PM66 °FScattered clouds.10 mph49%30.21 "HgN/A
2:20 PM64 °FPartly sunny.9 mph49%30.21 "HgN/A
1:50 PM64 °FScattered clouds.9 mph49%30.21 "HgN/A
1:20 PM63 °FScattered clouds.10 mph52%30.21 "HgN/A
Weather by CustomWeather, © 2015

See weather overviewHow to use our weather pages